When you browse on this site, cookies collect data to enhance your experience and personalize the content and advertising you see.
Visit our Privacy Policy to learn more. By continuing to use the site, you agree to this use of cookies and data.
  • în România
  • Lista ţărilor
  • Pe 7 zile
  • Temperatura apei
  • Hartă satelitară
  • Meteo pe hartă
  • Widget-uri
  • user-avatar
    Intrare

    Meteo pe oră la Uige

    Astăzi, 24 Martie, Duminică

    Timp Temperatura Precipitaţii Vânt Presiune Umiditate
    00:00 +24°C° 0.1 mm 1 m/s 690 mmHg 99%
    01:00 +24°C° 0.1 mm 1 m/s 690 mmHg 99%
    02:00 +24°C° 0.3 mm 1 m/s 690 mmHg 99%
    03:00 +24°C° 0.3 mm 1 m/s 690 mmHg 99%
    04:00 +24°C° 0.3 mm 1 m/s 690 mmHg 99%
    05:00 +24°C° 0.9 mm 1 m/s 690 mmHg 98%
    06:00 +24°C° 0.9 mm 1 m/s 690 mmHg 98%
    07:00 +22°C° 0.9 mm 0 m/s 690 mmHg 97%
    08:00 +24°C° 0.7 mm 1 m/s 691 mmHg 96%
    09:00 +25°C° 0.7 mm 1 m/s 691 mmHg 95%
    10:00 +25°C° 0.7 mm 1 m/s 692 mmHg 94%
    11:00 +27°C° 0.2 mm 1 m/s 691 mmHg 85%
    12:00 +28°C° 0.2 mm 1 m/s 691 mmHg 77%
    13:00 +29°C° 0.2 mm 2 m/s 691 mmHg 68%
    14:00 +29°C° 0.3 mm 2 m/s 690 mmHg 71%
    15:00 +28°C° 0.3 mm 2 m/s 690 mmHg 74%
    16:00 +28°C° 0.3 mm 2 m/s 689 mmHg 77%
    17:00 +26°C° 1.8 mm 1 m/s 689 mmHg 83%
    18:00 +25°C° 1.8 mm 1 m/s 690 mmHg 90%
    19:00 +22°C° 1.8 mm 0 m/s 690 mmHg 96%
    20:00 +21°C° 1.7 mm 0 m/s 690 mmHg 96%
    21:00 +23°C° 1.7 mm 1 m/s 691 mmHg 96%
    22:00 +23°C° 1.7 mm 1 m/s 691 mmHg 96%
    23:00 +22°C° 0 mm 1 m/s 690 mmHg 97%

    Mâine, 25 Martie, Luni

    Timp Temperatura Precipitaţii Vânt Presiune Umiditate
    00:00 +22°C° 0 mm 1 m/s 690 mmHg 97%
    01:00 +22°C° 0 mm 1 m/s 689 mmHg 98%
    02:00 +22°C° 0 mm 1 m/s 689 mmHg 98%
    03:00 +21°C° 0 mm 1 m/s 689 mmHg 98%
    04:00 +21°C° 0 mm 1 m/s 689 mmHg 98%
    05:00 +22°C° 0 mm 1 m/s 689 mmHg 98%
    06:00 +22°C° 0 mm 1 m/s 690 mmHg 98%
    07:00 +23°C° 0 mm 1 m/s 690 mmHg 98%
    08:00 +25°C° 0.3 mm 1 m/s 691 mmHg 89%
    09:00 +27°C° 0.3 mm 1 m/s 691 mmHg 80%
    10:00 +29°C° 0.3 mm 1 m/s 692 mmHg 71%
    11:00 +30°C° 0.9 mm 1 m/s 691 mmHg 65%
    12:00 +32°C° 0.9 mm 1 m/s 691 mmHg 59%
    13:00 +33°C° 0.9 mm 1 m/s 690 mmHg 53%
    14:00 +31°C° 0.9 mm 1 m/s 690 mmHg 64%
    15:00 +30°C° 0.9 mm 1 m/s 689 mmHg 74%
    16:00 +28°C° 0.9 mm 1 m/s 688 mmHg 84%
    17:00 +26°C° 1.7 mm 1 m/s 689 mmHg 88%
    18:00 +25°C° 1.7 mm 1 m/s 689 mmHg 92%
    19:00 +23°C° 1.7 mm 1 m/s 689 mmHg 96%
    20:00 +23°C° 4.6 mm 1 m/s 690 mmHg 97%
    21:00 +23°C° 4.6 mm 1 m/s 691 mmHg 97%
    22:00 +21°C° 4.6 mm 0 m/s 691 mmHg 97%
    23:00 +21°C° 0.9 mm 0 m/s 691 mmHg 98%

    Poimâine, 26 Martie, Marţi

    Timp Temperatura Precipitaţii Vânt Presiune Umiditate
    00:00 +20°C° 0.9 mm 0 m/s 691 mmHg 98%
    01:00 +20°C° 0.9 mm 0 m/s 690 mmHg 99%
    02:00 +20°C° 0.1 mm 0 m/s 690 mmHg 99%
    03:00 +20°C° 0.1 mm 0 m/s 690 mmHg 99%
    04:00 +20°C° 0.1 mm 0 m/s 689 mmHg 99%
    05:00 +20°C° 0.1 mm 0 m/s 690 mmHg 99%
    06:00 +20°C° 0.1 mm 0 m/s 691 mmHg 99%
    07:00 +20°C° 0.1 mm 0 m/s 691 mmHg 98%
    08:00 +23°C° 0.1 mm 1 m/s 692 mmHg 94%
    09:00 +25°C° 0.1 mm 1 m/s 693 mmHg 90%
    10:00 +26°C° 0.1 mm 1 m/s 693 mmHg 86%
    11:00 +27°C° 0 mm 1 m/s 693 mmHg 81%
    12:00 +28°C° 0 mm 1 m/s 692 mmHg 75%
    13:00 +29°C° 0 mm 1 m/s 691 mmHg 70%
    14:00 +29°C° 0.1 mm 1 m/s 691 mmHg 69%
    15:00 +29°C° 0.1 mm 1 m/s 690 mmHg 68%
    16:00 +29°C° 0.1 mm 1 m/s 690 mmHg 68%
    17:00 +27°C° 0.4 mm 1 m/s 690 mmHg 76%
    18:00 +26°C° 0.4 mm 1 m/s 690 mmHg 85%
    19:00 +24°C° 0.4 mm 1 m/s 691 mmHg 94%
    20:00 +23°C° 0.3 mm 1 m/s 691 mmHg 95%
    21:00 +21°C° 0.3 mm 0 m/s 692 mmHg 97%
    22:00 +20°C° 0.3 mm 0 m/s 692 mmHg 98%
    23:00 +20°C° 0.3 mm 0 m/s 692 mmHg 98%

    27 Martie, Miercuri

    Timp Temperatura Precipitaţii Vânt Presiune Umiditate
    00:00 +22°C° 0.3 mm 1 m/s 692 mmHg 98%
    01:00 +22°C° 0.3 mm 1 m/s 691 mmHg 99%
    02:00 +22°C° 0 mm 1 m/s 691 mmHg 98%
    03:00 +22°C° 0 mm 1 m/s 690 mmHg 97%
    04:00 +22°C° 0 mm 1 m/s 690 mmHg 96%
    05:00 +22°C° 0 mm 1 m/s 690 mmHg 95%
    06:00 +22°C° 0 mm 1 m/s 691 mmHg 94%
    07:00 +22°C° 0 mm 1 m/s 691 mmHg 94%
    08:00 +24°C° 0 mm 1 m/s 692 mmHg 85%
    09:00 +26°C° 0 mm 1 m/s 693 mmHg 77%
    10:00 +28°C° 0 mm 1 m/s 694 mmHg 68%
    11:00 +30°C° 0 mm 1 m/s 693 mmHg 61%
    12:00 +32°C° 0 mm 1 m/s 693 mmHg 53%
    13:00 +34°C° 0 mm 1 m/s 692 mmHg 46%
    14:00 +34°C° 0 mm 1 m/s 692 mmHg 47%
    15:00 +33°C° 0 mm 1 m/s 691 mmHg 48%
    16:00 +33°C° 0 mm 1 m/s 691 mmHg 49%
    17:00 +29°C° 0 mm 0 m/s 691 mmHg 57%
    18:00 +26°C° 0 mm 0 m/s 691 mmHg 65%
    19:00 +24°C° 0 mm 0 m/s 691 mmHg 73%
    20:00 +23°C° 0 mm 0 m/s 691 mmHg 76%
    21:00 +23°C° 0 mm 0 m/s 692 mmHg 78%
    22:00 +24°C° 0 mm 1 m/s 692 mmHg 81%
    23:00 +24°C° 0.1 mm 1 m/s 692 mmHg 82%

    28 Martie, Joi

    Timp Temperatura Precipitaţii Vânt Presiune Umiditate
    00:00 +24°C° 0.1 mm 1 m/s 691 mmHg 83%
    01:00 +23°C° 0.1 mm 1 m/s 691 mmHg 84%
    02:00 +23°C° 0 mm 1 m/s 691 mmHg 83%
    03:00 +23°C° 0 mm 1 m/s 690 mmHg 83%
    04:00 +23°C° 0 mm 1 m/s 690 mmHg 82%
    05:00 +24°C° 0 mm 1 m/s 691 mmHg 82%
    06:00 +24°C° 0 mm 1 m/s 691 mmHg 82%
    07:00 +24°C° 0 mm 1 m/s 692 mmHg 81%
    08:00 +25°C° 0 mm 2 m/s 692 mmHg 75%
    09:00 +27°C° 0 mm 2 m/s 693 mmHg 70%
    10:00 +29°C° 0 mm 2 m/s 693 mmHg 64%
    11:00 +30°C° 0.2 mm 2 m/s 693 mmHg 60%
    12:00 +31°C° 0.2 mm 2 m/s 692 mmHg 56%
    13:00 +34°C° 0.2 mm 2 m/s 691 mmHg 52%
    14:00 +32°C° 0.4 mm 1 m/s 691 mmHg 54%
    15:00 +32°C° 0.4 mm 1 m/s 690 mmHg 56%
    16:00 +32°C° 0.4 mm 1 m/s 690 mmHg 59%
    17:00 +30°C° 0.1 mm 1 m/s 690 mmHg 66%
    18:00 +28°C° 0.1 mm 1 m/s 690 mmHg 73%
    19:00 +26°C° 0.1 mm 1 m/s 691 mmHg 80%
    20:00 +25°C° 0.2 mm 1 m/s 691 mmHg 81%
    21:00 +25°C° 0.2 mm 1 m/s 691 mmHg 81%
    22:00 +24°C° 0.2 mm 1 m/s 692 mmHg 82%
    23:00 +22°C° 0.3 mm 0 m/s 691 mmHg 84%

    29 Martie, Vineri

    Timp Temperatura Precipitaţii Vânt Presiune Umiditate
    00:00 +21°C° 0.3 mm 0 m/s 691 mmHg 86%
    01:00 +21°C° 0.3 mm 0 m/s 690 mmHg 87%
    02:00 +21°C° 0 mm 0 m/s 690 mmHg 89%
    03:00 +23°C° 0 mm 1 m/s 690 mmHg 90%
    04:00 +22°C° 0 mm 1 m/s 690 mmHg 92%
    05:00 +23°C° 0 mm 1 m/s 690 mmHg 90%
    06:00 +23°C° 0 mm 1 m/s 691 mmHg 89%
    07:00 +23°C° 0 mm 1 m/s 691 mmHg 88%
    08:00 +26°C° 0.3 mm 1 m/s 692 mmHg 80%
    09:00 +28°C° 0.3 mm 1 m/s 692 mmHg 72%
    10:00 +31°C° 0.3 mm 1 m/s 692 mmHg 64%
    11:00 +32°C° 0.6 mm 1 m/s 692 mmHg 60%
    12:00 +33°C° 0.6 mm 1 m/s 691 mmHg 55%
    13:00 +34°C° 0.6 mm 1 m/s 691 mmHg 51%
    14:00 +32°C° 1 mm 1 m/s 690 mmHg 59%
    15:00 +31°C° 1 mm 1 m/s 690 mmHg 68%
    16:00 +30°C° 1 mm 1 m/s 689 mmHg 77%
    17:00 +28°C° 1.8 mm 1 m/s 690 mmHg 82%
    18:00 +26°C° 1.8 mm 1 m/s 690 mmHg 88%
    19:00 +24°C° 1.8 mm 1 m/s 690 mmHg 94%
    20:00 +24°C° 0.3 mm 1 m/s 690 mmHg 95%
    21:00 +24°C° 0.3 mm 1 m/s 690 mmHg 95%
    22:00 +23°C° 0.3 mm 1 m/s 690 mmHg 95%
    23:00 +23°C° 0.6 mm 1 m/s 690 mmHg 95%
    Arată mai mult